User: anonymous   Login
Location: Moy Burn
(57.3833°N, 4.0667°W)
Time: 12:15:57
(UTC+00:00)
Language:

Tsikada Rocket - Orbit

View from above orbital plane
View from above orbital plane
View from above satellite
View from above satellite

Ground track
Ground track

The orbit data is extracted from the following two-line orbital elements,

1 23466U 95002D   20296.96400398 -.00000046 +00000-0 -64470-4 0  9992
2 23466 082.9235 077.7624 0035237 032.2684 084.8775 13.74431414291137
Epoch (UTC): 22 October 2020 23:08:09
Eccentricity: 0.0035237
inclination: 82.9235°
perigee height: 958 km
apogee height: 1009 km
right ascension of ascending node: 77.7624°
argument of perigee: 32.2684°
revolutions per day: 13.74431414
mean anomaly at epoch: 84.8775°
orbit number at epoch: 29113

The dashed part of the orbit path shows where the satellite is in the earth's shadow,  

DLR